Temp
38 38 38 40 40 39 41 39 40 40 40 39 39 38 37 36 37 36 35 34 33 33 32 30 30 29 28 27 26 26 25 25 24 24 25 26 27 27 27 27 27 26 26 26
38 38 40 42 41 40 40 40 40 40 40 39 39 39 39 37 37 37 36 35 35 35 34 31 30 29 29 28 27 26 25 24 24 24 25 26 27 28 28 27 27 26 25 25
38 39 41 41 40 39 40 40 40 39 40 40 40 39 39 39 39 39 38 37 36 36 34 33 30 29 29 28 27 26 25 25 24 24 25 25 25 25 26 27 27 27 26 25
39 41 40 40 39 40 40 41 40 40 39 39 40 36 39 39 39 39 39 38 37 36 36 34 32 30 30 29 28 27 25 24 24 24 25 26 27 27 28 29 29 28 26 26
38 39 40 39 39 41 40 42 40 40 39 40 40 39 40 40 39 39 39 39 39 37 37 36 33 31 31 30 29 28 26 25 25 24 24 26 25 27 27 28 28 27 26 25
40 41 41 40 41 41 41 40 40 40 40 39 40 40 40 40 40 40 40 40 39 39 38 37 35 33 32 31 30 29 26 25 24 25 24 24 26 26 27 28 28 28 28 28
38 40 41 40 40 41 40 39 37 37 38 39 41 40 40 42 42 42 41 41 41 40 39 38 36 34 33 32 31 30 28 25 25 25 25 24 24 25 25 25 27 27 28 29
37 36 39 40 40 40 39 39 38 36 38 39 40 39 41 43 43 43 43 42 42 41 40 39 38 36 34 33 32 31 29 27 26 26 25 25 24 25 25 25 26 27 28 29
37 37 40 40 40 40 39 38 41 40 41 40 40 41 42 43 42 42 43 43 42 42 41 40 39 37 35 34 33 32 31 28 27 27 26 25 24 24 27 26 26 26 26 26
39 37 40 40 40 40 40 41 39 40 38 38 40 40 40 41 42 43 42 42 42 42 42 41 40 38 36 35 34 32 31 30 28 28 27 26 26 25 25 24 25 25 25 24
40 39 39 40 38 39 39 40 40 41 40 39 39 40 43 42 42 42 42 42 42 42 42 42 41 39 37 36 35 34 32 31 29 28 28 27 27 26 26 26 26 25 24 23
39 39 38 39 40 41 41 40 40 39 38 40 41 41 44 43 43 42 42 42 42 42 43 42 41 40 38 36 36 35 33 32 30 29 28 27 27 27 27 26 24 23 22 22
39 38 37 38 40 40 40 40 41 41 41 39 39 40 43 43 42 42 42 41 41 41 41 41 40 39 38 36 35 34 33 32 30 28 27 27 27 26 25 24 23 22 22 22
37 38 37 38 38 39 38 40 40 41 40 40 40 41 42 42 42 42 42 41 41 40 40 39 38 37 35 34 33 33 32 30 29 27 27 27 26 24 23 22 22 22 22 22
38 36 38 39 41 40 39 39 40 40 40 40 41 41 42 42 42 42 42 41 40 38 38 37 36 34 33 32 31 30 29 28 27 27 26 23 23 22 22 22 21 21 21 21
38 35 36 37 40 41 39 40 40 40 41 41 41 41 43 43 43 42 41 40 39 38 37 36 34 33 31 30 29 29 28 27 26 24 23 22 22 22 21 21 21 20 20 20
36 36 35 35 38 39 38 40 40 40 41 41 40 41 43 42 41 42 42 41 39 38 37 35 33 32 30 29 29 27 26 25 24 23 23 22 21 21 21 21 20 20 20 19
35 35 35 35 37 35 38 41 41 40 41 42 41 42 42 42 42 42 42 42 41 39 37 34 33 31 29 29 27 26 25 24 23 23 22 21 21 21 20 20 19 19 19 19
37 35 34 34 36 37 38 39 39 39 39 41 40 41 42 42 42 41 41 42 42 39 36 33 31 30 29 27 26 25 24 23 23 22 22 21 21 20 20 19 19 19 19 19
36 35 35 34 34 34 37 40 41 41 37 40 40 40 41 41 39 40 41 41 40 37 34 32 30 28 27 25 24 24 23 23 22 21 21 20 20 20 19 19 18 18 19 18
33 33 33 34 34 37 40 40 41 36 37 40 40 40 40 40 40 41 40 39 37 34 31 30 28 27 25 24 24 23 23 22 21 20 20 19 18 18 18 18 17 17 18 17
32 31 33 35 34 34 40 40 37 38 39 40 40 40 40 40 41 39 37 35 34 31 30 28 27 25 24 23 23 22 21 20 20 19 19 18 19 19 18 17 17 17 16 18
31 33 34 34 35 37 39 39 40 40 39 39 40 41 41 40 40 37 34 33 31 30 28 27 26 24 23 23 22 21 19 19 19 18 17 17 17 17 17 17 17 19 18 19
34 35 34 34 35 37 38 39 39 39 40 40 40 41 41 40 40 36 33 32 30 28 28 27 25 24 23 22 21 19 19 18 18 18 17 17 17 17 18 19 19 17 17 17
35 34 33 34 35 36 37 38 38 38 37 37 38 39 39 39 37 34 32 30 29 27 27 25 24 23 22 21 19 19 18 18 19 18 18 18 18 17 15 15 16 14 12 12
35 34 33 34 35 35 36 37 38 38 38 39 36 37 38 39 36 33 31 29 28 26 25 24 23 22 21 19 19 18 19 19 19 19 20 21 19 19 18 15 12 12 12 12
Height
744 757 758 741 738 747 734 749 752 746 745 753 753 761 768 768 768 774 778 784 788 792 798 806 811 816 822 826 830 834 838 841 844 846 847 848 847 847 847 847 848 848 847 846
747 758 731 720 729 741 738 748 751 747 743 752 752 757 754 762 764 765 771 777 781 784 791 801 808 813 816 820 826 831 834 837 840 842 844 845 845 845 845 845 846 846 846 846
746 738 721 726 734 748 740 745 750 756 748 743 750 761 756 752 754 755 760 766 772 778 786 795 803 808 813 817 821 826 830 833 836 839 841 843 845 845 845 844 843 843 844 844
735 720 729 733 744 739 750 728 742 751 760 770 744 795 760 751 756 756 758 761 766 771 778 788 797 803 807 811 816 821 825 829 833 836 838 839 840 840 839 839 839 840 842 842
736 729 731 739 741 730 742 723 741 747 758 755 753 769 754 744 760 755 750 754 756 764 771 778 789 796 801 806 811 815 820 825 829 831 834 836 838 838 838 839 839 839 840 838
719 708 715 727 723 722 721 740 746 748 753 775 752 755 758 750 749 745 741 743 749 755 763 770 780 788 796 801 806 811 816 821 825 829 831 833 834 836 835 835 835 834 834 834
727 720 711 716 733 723 732 752 783 789 781 777 734 756 748 726 725 727 734 736 739 746 755 763 771 780 788 794 799 805 811 816 820 823 826 828 830 832 833 834 834 833 831 829
742 753 724 715 725 735 745 748 768 801 782 763 742 768 744 712 709 714 715 722 730 738 744 754 762 772 780 787 793 799 804 810 814 817 820 823 826 828 828 829 830 829 828 826
734 739 709 711 715 718 739 756 726 746 735 757 746 738 718 711 718 717 717 715 724 729 735 745 753 764 772 780 786 792 798 804 809 812 815 818 821 822 824 825 826 827 828 827
699 734 703 710 710 711 720 721 758 741 777 777 744 750 748 732 725 714 719 717 716 721 727 735 746 755 765 773 780 787 792 798 803 807 810 813 816 819 821 822 823 824 825 825
688 705 713 703 720 727 729 731 732 727 738 758 769 747 704 716 710 715 713 711 713 716 720 727 737 748 759 766 773 780 787 792 798 803 806 810 813 815 817 818 819 820 821 822
685 699 715 713 699 697 704 722 722 745 758 732 733 729 683 696 702 708 709 709 709 713 716 722 731 741 752 760 767 774 780 787 793 799 803 806 810 812 814 816 817 820 821 823
685 705 727 718 708 702 711 711 710 715 719 741 750 742 691 694 702 704 705 709 711 714 717 723 731 738 747 757 764 770 777 784 791 796 801 804 807 810 812 814 817 820 821 822
680 695 705 714 713 704 724 710 709 712 736 733 731 720 707 705 707 705 706 707 711 716 720 727 735 742 749 757 764 769 776 783 789 795 799 802 806 810 813 816 818 820 822 822
678 707 697 691 681 690 702 709 707 715 713 728 716 716 705 702 705 699 701 707 715 721 724 729 738 744 752 758 764 770 777 782 788 793 798 804 808 812 815 817 819 821 823 823
675 705 700 705 684 680 699 696 702 699 701 705 704 708 683 686 690 699 700 710 717 722 725 731 737 746 752 759 764 770 777 784 790 795 801 806 809 813 816 819 820 821 822 822
685 694 704 719 693 693 710 686 691 695 690 698 716 701 684 692 696 697 697 701 713 717 722 729 736 745 752 758 762 771 778 784 790 795 801 805 809 813 816 817 819 820 821 822
685 692 696 711 703 729 686 662 667 683 682 680 685 686 683 685 686 688 690 694 699 708 717 727 735 743 751 757 764 771 779 784 790 795 800 804 809 814 817 819 821 821 820 820
666 686 701 711 708 696 685 677 681 690 694 676 685 685 681 679 683 692 687 687 690 700 715 727 735 743 750 757 764 771 779 785 788 793 798 802 806 810 814 816 819 820 821 821
664 674 693 703 712 716 684 664 658 668 706 676 679 686 683 682 708 699 683 685 690 701 716 727 736 744 752 760 766 771 777 784 787 792 796 800 804 810 814 811 815 818 821 820
688 688 699 695 705 684 654 651 652 707 702 666 670 676 679 688 685 679 678 681 693 706 719 728 738 745 753 761 766 771 777 783 788 790 792 796 799 801 811 816 813 819 821 822
691 700 692 689 699 711 647 651 679 674 662 660 662 665 670 672 673 678 688 694 700 711 721 730 739 748 756 760 765 771 777 782 788 789 792 798 804 807 806 811 813 818 819 819
694 677 681 679 677 655 647 649 643 647 660 661 660 656 658 667 669 678 692 700 708 715 724 732 740 750 757 763 767 769 774 780 786 787 792 798 803 809 808 811 814 814 816 816
660 657 674 673 666 655 651 644 644 644 649 651 651 652 653 663 664 678 692 700 709 718 725 733 743 752 759 765 769 772 776 780 784 787 793 798 805 809 810 812 814 815 817 816
648 658 666 670 658 656 650 649 649 650 653 657 657 654 653 656 667 680 693 701 708 717 725 735 743 752 759 765 771 774 777 780 783 787 792 799 805 810 812 815 815 817 819 820
643 652 667 669 653 657 651 648 646 648 648 649 657 657 655 655 668 680 692 701 708 716 726 735 744 753 762 768 772 776 779 781 783 786 792 796 802 805 809 816 816 817 818 818
Wind_Speed
18 14 16 20 9 9 11 3 12 10 8 6 2 17 14 14 12 13 13 13 14 14 17 18 18 20 22 21 24 22 20 17 16 14 13 12 12 11 11 11 11 9 8 8
16 20 20 19 18 14 4 6 8 8 8 8 10 7 17 16 13 14 13 14 14 14 16 20 20 20 21 23 24 24 23 22 19 18 16 15 12 12 11 11 9 9 9 8
22 23 21 18 8 12 13 13 12 6 5 10 5 10 14 17 15 13 14 14 14 15 17 16 21 21 21 22 24 24 25 24 23 21 17 15 14 14 14 15 14 11 8 8
23 22 21 10 15 17 16 7 4 4 9 4 9 2 14 16 15 16 15 15 16 16 17 17 21 22 23 23 23 23 24 24 23 21 21 18 17 15 13 13 11 6 7 8
25 24 19 21 21 17 10 9 8 6 8 11 14 8 15 16 16 17 17 18 17 18 18 19 22 24 24 23 22 22 23 22 22 22 22 20 18 17 14 13 11 8 11 12
25 23 19 20 19 18 18 6 7 11 11 12 12 12 13 15 16 17 18 19 19 18 19 18 24 25 24 23 22 22 22 22 21 20 20 21 17 15 15 11 11 12 12 10
26 28 21 18 22 21 13 11 10 11 11 9 17 10 4 15 12 17 20 19 21 20 20 19 19 24 25 26 24 23 23 22 22 22 21 20 20 19 16 14 14 15 15 13
22 25 20 23 25 20 19 20 13 15 12 11 7 7 6 10 16 11 17 21 20 21 20 21 21 25 27 27 26 25 25 23 23 23 22 21 20 18 18 19 17 16 16 14
23 29 25 25 21 25 18 21 23 22 17 8 14 12 16 10 11 9 12 18 22 21 21 21 22 27 26 26 27 26 24 24 23 23 22 22 20 21 18 18 15 15 14 14
20 21 24 25 20 28 26 20 21 17 15 13 9 16 10 16 15 13 14 16 20 22 21 20 18 25 26 26 25 25 24 24 22 22 21 20 19 17 16 15 15 15 14 11
28 19 24 23 23 23 22 20 23 20 15 11 12 12 12 14 12 7 8 17 17 20 20 18 19 24 24 24 24 23 23 22 21 20 18 17 15 14 13 13 12 10 3 1
28 11 17 24 22 24 23 22 25 15 18 15 11 3 19 15 8 6 10 14 17 17 17 17 16 21 23 22 22 22 21 20 18 16 14 13 12 11 10 7 3 1 1 4
25 17 17 22 23 23 24 25 23 25 18 15 13 10 8 10 5 7 10 15 16 17 15 13 13 13 18 20 19 19 18 16 15 14 13 12 11 8 5 6 5 3 2 1
24 21 20 18 21 22 28 27 28 22 17 15 17 15 16 11 9 12 8 14 15 15 15 14 13 10 15 16 17 16 16 15 15 14 13 12 9 9 9 8 6 5 3 3
27 28 22 23 21 25 24 28 26 28 25 21 19 15 12 7 8 9 13 13 15 15 16 16 15 13 18 18 18 18 17 17 16 16 14 14 13 12 10 9 8 6 4 3
23 21 27 24 27 23 29 30 32 29 28 23 22 16 7 12 9 12 11 12 14 15 16 16 16 15 19 21 21 21 20 19 19 19 19 17 15 13 11 9 7 6 4 4
24 20 21 24 24 22 22 26 28 30 27 24 23 19 16 9 11 12 13 12 14 16 17 17 17 17 21 23 24 22 23 22 21 21 19 17 16 13 10 8 7 5 5 5
22 19 16 19 19 29 11 20 19 24 25 26 23 19 17 12 11 12 13 14 15 14 16 17 17 22 24 25 25 25 24 24 23 22 20 18 15 12 9 7 6 6 5 5
25 19 14 17 20 17 21 21 20 16 16 15 15 16 15 12 10 12 8 13 12 14 15 18 23 25 26 27 28 28 26 24 25 22 20 18 15 13 10 8 6 5 4 4
16 18 15 15 23 27 19 22 18 21 20 18 16 19 20 15 13 10 17 15 9 15 21 22 25 27 27 28 29 28 27 25 23 22 20 18 14 10 8 10 8 5 2 3
15 16 21 16 17 16 15 15 19 19 12 19 23 21 21 18 16 13 11 15 15 20 24 26 27 26 28 29 29 27 26 23 22 22 21 19 17 17 10 8 9 5 2 3
17 16 15 18 16 17 17 16 23 12 14 13 20 19 20 19 20 9 8 14 18 19 25 28 27 25 27 28 28 26 24 23 21 21 20 17 12 11 13 10 8 5 2 3
19 19 14 15 17 2 14 14 15 17 15 16 17 16 18 16 17 13 14 16 16 21 25 27 26 26 26 26 26 27 26 25 22 22 21 19 15 10 12 10 7 7 5 5
19 19 17 14 16 18 9 11 4 5 12 10 14 16 16 16 13 16 15 17 17 22 24 26 25 25 24 23 22 23 24 23 23 23 20 17 14 11 9 8 7 9 7 7
10 15 16 20 14 15 15 14 10 10 8 9 11 14 12 9 14 17 17 18 18 23 26 26 25 24 24 23 22 23 24 23 22 21 19 16 14 12 11 9 10 12 12 11
18 14 13 10 13 14 11 19 19 15 15 10 10 12 16 15 19 19 17 18 22 25 27 25 25 26 24 22 22 22 21 21 21 20 16 15 13 13 13 12 13 13 11 12
Wind_Direction
202 218 219 209 202 225 232 30 131 115 112 239 54 134 158 172 182 170 169 170 176 179 174 178 189 184 186 194 201 203 208 212 215 219 225 233 245 252 262 271 282 293 294 291
195 221 219 228 158 234 252 199 134 93 122 273 152 180 152 172 189 171 180 173 177 172 161 171 183 188 195 195 200 207 212 213 215 221 228 237 251 259 272 275 283 281 285 293
213 208 229 222 168 222 216 210 135 95 167 212 250 179 167 171 182 176 177 177 183 176 167 174 182 189 194 199 203 206 211 215 216 221 227 234 245 256 265 267 267 265 261 280
219 213 217 197 217 217 218 225 73 228 243 244 183 306 183 170 184 181 180 179 182 183 181 176 183 190 196 199 200 205 209 214 218 219 226 228 240 248 254 261 264 271 275 275
212 222 213 198 214 213 252 148 199 239 259 268 186 243 155 173 187 186 187 182 186 181 185 180 187 191 197 197 198 200 203 208 214 214 220 227 231 247 254 261 270 263 270 263
224 214 218 216 220 229 236 185 230 248 248 247 247 243 173 173 186 192 188 181 184 182 186 187 184 188 196 198 198 197 196 201 207 213 218 226 237 235 250 249 259 261 282 278
216 224 208 222 221 219 232 211 221 222 225 244 201 213 226 152 179 186 187 189 180 184 185 187 184 187 193 197 198 197 193 200 203 207 213 218 222 227 236 249 256 267 275 270
202 216 199 217 232 211 214 220 226 209 221 184 203 222 203 146 159 169 186 189 188 183 185 187 189 191 193 197 199 200 193 199 204 207 212 216 219 225 234 241 249 264 271 288
203 215 195 218 211 236 197 223 244 249 229 259 177 201 229 152 185 188 197 190 188 190 188 190 190 191 194 197 200 203 200 200 209 212 211 215 222 227 235 241 246 256 267 273
195 209 209 198 213 224 232 204 227 245 262 239 180 174 216 184 206 193 188 208 193 191 193 187 192 189 195 197 199 202 204 204 211 215 214 218 224 229 238 246 251 259 267 268
234 210 207 186 204 205 210 226 212 237 237 233 243 187 178 171 188 152 214 201 196 195 198 193 189 192 197 198 196 200 203 201 207 210 213 215 220 226 232 240 249 259 233 251
223 213 225 195 197 222 205 216 203 224 212 257 275 309 171 156 173 194 156 181 189 197 199 193 195 191 189 201 195 195 199 200 199 202 205 207 212 224 230 230 245 54 251 266
204 226 215 192 198 206 219 206 215 220 241 221 243 137 125 138 156 159 166 175 182 190 190 180 188 188 188 190 200 192 189 192 190 189 191 197 195 192 192 145 138 191 232 295
199 216 231 211 206 196 214 209 218 221 220 234 213 249 147 161 194 156 213 170 177 185 171 170 170 167 173 176 184 180 174 178 175 176 179 170 163 146 126 128 129 110 96 73
199 220 218 245 214 205 204 217 222 223 228 226 231 211 236 205 191 208 171 165 176 185 176 165 169 167 165 164 165 165 162 161 161 157 140 124 124 121 123 121 113 100 79 51
201 218 227 227 243 205 210 208 221 227 225 236 245 243 229 196 202 215 149 163 182 188 181 167 167 167 165 161 158 156 151 147 146 130 130 130 125 123 120 115 107 95 69 41
202 213 208 222 225 236 242 221 211 226 225 230 236 237 254 206 204 225 221 183 194 194 183 174 169 166 162 163 153 150 147 140 136 134 131 130 129 124 120 114 105 88 64 42
202 215 200 216 215 229 204 236 214 222 229 228 236 249 250 226 204 226 237 227 205 190 179 173 165 164 162 154 151 143 142 141 139 133 133 128 124 116 111 105 87 75 66 52
206 196 215 210 218 225 220 227 220 233 232 230 233 237 244 228 223 237 265 255 230 182 168 167 165 159 154 152 146 144 144 144 139 137 134 130 128 126 125 106 89 69 66 55
204 208 218 208 224 219 215 212 217 221 229 231 218 232 240 223 230 222 238 214 200 148 156 162 158 153 150 150 150 147 146 146 141 139 135 131 127 121 111 116 106 87 48 74
209 191 213 216 222 239 207 216 188 217 222 209 219 221 231 233 239 237 308 156 150 150 155 155 156 156 153 154 153 148 146 145 144 142 133 128 132 130 122 112 97 84 43 45
202 194 207 215 211 224 231 212 200 203 235 250 214 224 225 232 239 161 147 148 148 152 154 157 157 152 156 157 152 147 146 145 145 134 123 118 121 125 121 115 107 101 50 88
207 209 213 216 221 317 252 244 239 204 210 236 254 242 209 218 228 155 157 155 154 154 157 161 156 155 160 160 159 151 146 145 140 127 123 124 124 130 118 111 119 126 82 45
198 203 225 232 230 236 234 243 239 270 242 240 254 238 210 212 218 156 162 160 156 156 162 159 152 158 159 162 158 146 143 142 136 129 127 126 130 126 118 115 112 84 64 55
178 206 224 230 227 225 228 225 221 208 216 243 269 269 273 198 170 166 169 161 156 160 157 155 160 161 160 158 150 147 145 145 137 133 132 135 137 124 110 96 91 100 78 70
231 213 208 233 216 229 229 224 244 250 252 222 229 244 242 196 167 169 166 162 159 157 158 159 160 158 157 152 148 150 150 148 143 135 143 147 144 160 143 137 110 105 89 72